Зелёное

Россия / Забайкальский край     53°41′18″N   116°35′26″E
темп.,
°C
ветер,
м/с
пор.,
м/с
влажн.,
%
обл.,
%
осадки,
мм/ч
давл.,
гПа
погр.,
м
15 мая, сб
сб1500:00+1ссз229460 0.0 101218
03:000сз22935 0.0 101323
06:00−1сз22860 0.0 101429
09:00+6сз24500 0.0 1012770
12:00+11сз24285 0.0 10092091
15:00+14сз35202 0.0 10062651
18:00+14ссз35200 0.0 10052597
21:00+6вюв11391 0.0 100510
16 мая, вс
вс1600:00+4зюз114674 0.0 100610
03:00+2зюз225986 0.0 100619
06:00+1зюз23702 0.0 100668
09:00+8зсз58385 0.0 10031142
12:00+13зсз61124100 0.0 10002021
15:00+13з593675 0.0 9992107
18:00+12зсз51250100 0.8 9982052
21:00+8сз612355 0.9 1002921
17 мая, пн
пн1700:00+2ссз22585 0.0 100637
03:000ссз2269100 0.0 100717
06:00+1юв1162100 0.0 100656
09:00+5юз1244100 0.1 10041159
12:00+7ю2148100 0.0 10021508
15:00+8юз2347100 0.1 10001612
18:00+8зсз575295 0.3 9991497
21:00+3ссз11804 0.5 100110
18 мая, вт
вт1800:000зсз23833 0.1 100381
03:00−2сз23755 0.1 100550
06:00−3зсз21738 0.0 100631
09:00+4зсз473710 0.0 10042025
12:00+7зсз6919100 0.0 10033322
15:00+7зсз61017100 0.0 10023700
18:00+7сз61118100 0.0 10033543
21:00+1сз22345 0.0 100512
19 мая, ср
ср1900:00−2зюз114221 0.0 100610
03:00−2ю1143100 0.0 100511
06:000ююв1139100 0.1 100367
09:00+6юз355243 0.1 9991187
12:00+8зюз4644100 0.1 9971818
15:00+12зсз51022100 0.4 9943243
18:00+12сз5102496 0.0 9932773
21:00+6сз4937100 0.0 997421